contact:dominique.lefevre@mio.osupytheas.fr, maurice.libes@osupytheas.fr, didier.mallarino@osupytheas.fr
Project:EMSO http://www.emso-fr.org/EMSO-France
Depth: 2436.0 m
Title:EMSO Ligure Ouest : Data MII capteur CSTAR
DateTime,Latitude,Longitude,Instrument_Serial,Reference_Counts,Signal_Counts,Corrected_Signal_raw_counts,Calculated_Beam_c_inverse_meters,Internal_thermistor_counts
DateTime,Latitude,Longitude,Instrument_Serial,Reference_Counts,Signal_Counts,Corrected_Signal_raw_counts,Calculated_Beam_c_inverse_meters,Internal_thermistor_counts
2021-01-15T00:01:26,42.805,6.029,CST-1368DR,5614,7851,15034,0.152,551
2021-01-15T00:04:28,42.805,6.029,CST-1368DR,5614,7853,15037,0.151,551
2021-01-15T00:07:30,42.805,6.029,CST-1368DR,5614,7851,15033,0.152,551
2021-01-15T00:10:31,42.805,6.029,CST-1368DR,5614,7852,15035,0.152,551
2021-01-15T00:13:33,42.805,6.029,CST-1368DR,5614,7853,15037,0.151,551
2021-01-15T00:16:34,42.805,6.029,CST-1368DR,5614,7852,15036,0.151,551
2021-01-15T00:19:36,42.805,6.029,CST-1368DR,5614,7852,15036,0.151,551
2021-01-15T00:22:38,42.805,6.029,CST-1368DR,5614,7852,15036,0.151,551
2021-01-15T00:25:39,42.805,6.029,CST-1368DR,5614,7853,15037,0.151,551
2021-01-15T00:28:41,42.805,6.029,CST-1368DR,5614,7852,15035,0.152,551
2021-01-15T00:31:42,42.805,6.029,CST-1368DR,5614,7853,15038,0.151,551
2021-01-15T00:34:44,42.805,6.029,CST-1368DR,5614,7852,15035,0.152,551
2021-01-15T00:37:45,42.805,6.029,CST-1368DR,5614,7853,15037,0.151,551
2021-01-15T00:40:47,42.805,6.029,CST-1368DR,5614,7852,15035,0.152,551
2021-01-15T00:43:49,42.805,6.029,CST-1368DR,5614,7853,15038,0.151,551
2021-01-15T00:46:50,42.805,6.029,CST-1368DR,5614,7840,15012,0.158,551
2021-01-15T00:49:52,42.805,6.029,CST-1368DR,5614,7850,15032,0.152,551
2021-01-15T00:52:53,42.805,6.029,CST-1368DR,5614,7850,15031,0.153,551
2021-01-15T00:55:55,42.805,6.029,CST-1368DR,5614,7849,15030,0.153,551
2021-01-15T00:58:56,42.805,6.029,CST-1368DR,5614,7853,15036,0.151,551
2021-01-15T01:01:58,42.805,6.029,CST-1368DR,5614,7853,15036,0.151,551
2021-01-15T01:05:00,42.805,6.029,CST-1368DR,5614,7851,15034,0.152,551
2021-01-15T01:08:01,42.805,6.029,CST-1368DR,5614,7853,15038,0.151,551
2021-01-15T01:11:03,42.805,6.029,CST-1368DR,5614,7852,15036,0.151,551
2021-01-15T01:14:04,42.805,6.029,CST-1368DR,5614,7852,15036,0.151,551
2021-01-15T01:17:06,42.805,6.029,CST-1368DR,5614,7851,15034,0.152,551
2021-01-15T01:20:08,42.805,6.029,CST-1368DR,5614,7852,15036,0.151,551
2021-01-15T01:23:09,42.805,6.029,CST-1368DR,5614,7852,15035,0.152,551
2021-01-15T01:26:11,42.805,6.029,CST-1368DR,5614,7852,15036,0.151,551
2021-01-15T01:29:12,42.805,6.029,CST-1368DR,5614,7852,15035,0.152,551
2021-01-15T01:32:14,42.805,6.029,CST-1368DR,5614,7852,15036,0.151,551
2021-01-15T01:35:15,42.805,6.029,CST-1368DR,5614,7852,15035,0.152,551
2021-01-15T01:38:17,42.805,6.029,CST-1368DR,5614,7850,15032,0.152,551
2021-01-15T01:41:19,42.805,6.029,CST-1368DR,5614,7852,15035,0.152,551
2021-01-15T01:44:20,42.805,6.029,CST-1368DR,5614,7852,15036,0.151,551
2021-01-15T01:47:22,42.805,6.029,CST-1368DR,5614,7852,15036,0.151,551
2021-01-15T01:50:23,42.805,6.029,CST-1368DR,5614,7852,15036,0.151,551
2021-01-15T01:53:25,42.805,6.029,CST-1368DR,5614,7852,15036,0.151,551
2021-01-15T01:56:27,42.805,6.029,CST-1368DR,5614,7852,15035,0.152,551
2021-01-15T01:59:28,42.805,6.029,CST-1368DR,5614,7852,15035,0.152,551
2021-01-15T02:02:30,42.805,6.029,CST-1368DR,5614,7852,15035,0.152,551
2021-01-15T02:05:31,42.805,6.029,CST-1368DR,5614,7852,15036,0.151,551
2021-01-15T02:08:33,42.805,6.029,CST-1368DR,5614,7852,15035,0.152,551
2021-01-15T02:11:34,42.805,6.029,CST-1368DR,5614,7852,15036,0.151,551
2021-01-15T02:14:36,42.805,6.029,CST-1368DR,5614,7853,15036,0.151,551
2021-01-15T02:17:38,42.805,6.029,CST-1368DR,5614,7852,15036,0.151,551
2021-01-15T02:20:39,42.805,6.029,CST-1368DR,5614,7852,15036,0.151,551
2021-01-15T02:23:41,42.805,6.029,CST-1368DR,5614,7852,15035,0.152,551
2021-01-15T02:26:42,42.805,6.029,CST-1368DR,5614,7851,15033,0.152,551
2021-01-15T02:29:44,42.805,6.029,CST-1368DR,5614,7852,15035,0.152,551
2021-01-15T02:32:45,42.805,6.029,CST-1368DR,5614,7852,15035,0.152,551
2021-01-15T02:35:47,42.805,6.029,CST-1368DR,5614,7852,15035,0.152,551
2021-01-15T02:38:49,42.805,6.029,CST-1368DR,5613,7851,15035,0.152,551
2021-01-15T02:41:50,42.805,6.029,CST-1368DR,5613,7851,15036,0.151,551
2021-01-15T02:44:52,42.805,6.029,CST-1368DR,5613,7851,15036,0.151,551
2021-01-15T02:47:53,42.805,6.029,CST-1368DR,5613,7851,15035,0.152,551
2021-01-15T02:50:55,42.805,6.029,CST-1368DR,5613,7853,15039,0.151,551
2021-01-15T02:53:57,42.805,6.029,CST-1368DR,5614,7852,15036,0.151,551
2021-01-15T02:56:58,42.805,6.029,CST-1368DR,5613,7850,15034,0.152,551
2021-01-15T03:00:00,42.805,6.029,CST-1368DR,5613,7851,15036,0.151,551
2021-01-15T03:03:01,42.805,6.029,CST-1368DR,5613,7852,15039,0.151,551
2021-01-15T03:06:03,42.805,6.029,CST-1368DR,5613,7852,15039,0.151,551
2021-01-15T03:09:04,42.805,6.029,CST-1368DR,5613,7852,15038,0.151,551
2021-01-15T03:12:06,42.805,6.029,CST-1368DR,5613,7852,15039,0.151,551
2021-01-15T03:15:08,42.805,6.029,CST-1368DR,5613,7853,15039,0.151,551
2021-01-15T03:18:09,42.805,6.029,CST-1368DR,5613,7852,15037,0.151,551
2021-01-15T03:21:11,42.805,6.029,CST-1368DR,5614,7852,15035,0.152,551
2021-01-15T03:24:12,42.805,6.029,CST-1368DR,5614,7851,15034,0.152,551
2021-01-15T03:27:14,42.805,6.029,CST-1368DR,5613,7851,15037,0.151,551
2021-01-15T03:30:16,42.805,6.029,CST-1368DR,5613,7850,15034,0.152,551
2021-01-15T03:33:17,42.805,6.029,CST-1368DR,5613,7851,15036,0.151,551
2021-01-15T03:36:19,42.805,6.029,CST-1368DR,5613,7852,15039,0.151,551
2021-01-15T03:39:20,42.805,6.029,CST-1368DR,5613,7852,15038,0.151,551
2021-01-15T03:42:22,42.805,6.029,CST-1368DR,5613,7852,15038,0.151,551
2021-01-15T03:45:23,42.805,6.029,CST-1368DR,5613,7852,15037,0.151,551
2021-01-15T03:48:25,42.805,6.029,CST-1368DR,5613,7853,15039,0.151,551
2021-01-15T03:51:27,42.805,6.029,CST-1368DR,5613,7851,15036,0.151,551
2021-01-15T03:54:28,42.805,6.029,CST-1368DR,5614,7851,15034,0.152,551
2021-01-15T03:57:30,42.805,6.029,CST-1368DR,5613,7851,15037,0.151,551
2021-01-15T04:00:31,42.805,6.029,CST-1368DR,5613,7852,15038,0.151,551
2021-01-15T04:03:33,42.805,6.029,CST-1368DR,5613,7847,15028,0.154,551
2021-01-15T04:06:34,42.805,6.029,CST-1368DR,5613,7852,15038,0.151,551
2021-01-15T04:09:36,42.805,6.029,CST-1368DR,5613,7853,15039,0.151,551
2021-01-15T04:12:38,42.805,6.029,CST-1368DR,5613,7850,15035,0.152,551
2021-01-15T04:15:39,42.805,6.029,CST-1368DR,5613,7852,15037,0.151,551
2021-01-15T04:18:41,42.805,6.029,CST-1368DR,5613,7851,15036,0.151,551
2021-01-15T04:21:42,42.805,6.029,CST-1368DR,5613,7851,15037,0.151,551
2021-01-15T04:24:44,42.805,6.029,CST-1368DR,5613,7852,15037,0.151,551
2021-01-15T04:27:46,42.805,6.029,CST-1368DR,5613,7852,15038,0.151,551
2021-01-15T04:30:47,42.805,6.029,CST-1368DR,5613,7852,15039,0.151,551
2021-01-15T04:33:49,42.805,6.029,CST-1368DR,5613,7852,15037,0.151,551
2021-01-15T04:36:50,42.805,6.029,CST-1368DR,5613,7852,15039,0.151,551
2021-01-15T04:39:52,42.805,6.029,CST-1368DR,5613,7852,15037,0.151,551
2021-01-15T04:42:53,42.805,6.029,CST-1368DR,5613,7852,15038,0.151,551
2021-01-15T04:45:55,42.805,6.029,CST-1368DR,5613,7851,15037,0.151,551
2021-01-15T04:48:57,42.805,6.029,CST-1368DR,5613,7852,15037,0.151,551
2021-01-15T04:51:58,42.805,6.029,CST-1368DR,5613,7852,15038,0.151,551
2021-01-15T04:55:00,42.805,6.029,CST-1368DR,5613,7852,15037,0.151,551
2021-01-15T04:58:01,42.805,6.029,CST-1368DR,5613,7852,15038,0.151,551
2021-01-15T05:01:03,42.805,6.029,CST-1368DR,5613,7852,15037,0.151,551
2021-01-15T05:04:04,42.805,6.029,CST-1368DR,5613,7852,15038,0.151,551
2021-01-15T05:07:06,42.805,6.029,CST-1368DR,5613,7852,15037,0.151,551
2021-01-15T05:10:08,42.805,6.029,CST-1368DR,5613,7852,15037,0.151,551
2021-01-15T05:13:09,42.805,6.029,CST-1368DR,5613,7851,15036,0.151,551
2021-01-15T05:16:11,42.805,6.029,CST-1368DR,5613,7852,15038,0.151,551
2021-01-15T05:19:12,42.805,6.029,CST-1368DR,5613,7852,15038,0.151,551
2021-01-15T05:22:14,42.805,6.029,CST-1368DR,5613,7849,15032,0.152,551
2021-01-15T05:25:15,42.805,6.029,CST-1368DR,5613,7852,15038,0.151,551
2021-01-15T05:28:17,42.805,6.029,CST-1368DR,5613,7851,15037,0.151,550
2021-01-15T05:31:19,42.805,6.029,CST-1368DR,5613,7852,15038,0.151,551
2021-01-15T05:34:20,42.805,6.029,CST-1368DR,5613,7852,15038,0.151,551
2021-01-15T05:37:22,42.805,6.029,CST-1368DR,5613,7852,15038,0.151,551
2021-01-15T05:40:23,42.805,6.029,CST-1368DR,5613,7852,15038,0.151,551
2021-01-15T05:43:25,42.805,6.029,CST-1368DR,5613,7852,15038,0.151,551
2021-01-15T05:46:27,42.805,6.029,CST-1368DR,5613,7852,15038,0.151,551
2021-01-15T05:49:28,42.805,6.029,CST-1368DR,5613,7852,15038,0.151,551
2021-01-15T05:52:30,42.805,6.029,CST-1368DR,5613,7852,15037,0.151,551
2021-01-15T05:55:31,42.805,6.029,CST-1368DR,5613,7851,15035,0.152,551
2021-01-15T05:58:33,42.805,6.029,CST-1368DR,5613,7851,15036,0.151,551
2021-01-15T06:01:34,42.805,6.029,CST-1368DR,5613,7850,15034,0.152,551
2021-01-15T06:04:36,42.805,6.029,CST-1368DR,5613,7852,15037,0.151,551
2021-01-15T06:07:38,42.805,6.029,CST-1368DR,5613,7851,15037,0.151,551
2021-01-15T06:10:39,42.805,6.029,CST-1368DR,5613,7851,15037,0.151,551
2021-01-15T06:13:41,42.805,6.029,CST-1368DR,5613,7852,15038,0.151,551
2021-01-15T06:16:42,42.805,6.029,CST-1368DR,5613,7852,15039,0.151,551
2021-01-15T06:19:44,42.805,6.029,CST-1368DR,5613,7851,15036,0.151,551
2021-01-15T06:22:46,42.805,6.029,CST-1368DR,5613,7851,15036,0.151,551
2021-01-15T06:25:47,42.805,6.029,CST-1368DR,5613,7851,15035,0.152,551
2021-01-15T06:28:49,42.805,6.029,CST-1368DR,5613,7849,15032,0.152,551
2021-01-15T06:31:50,42.805,6.029,CST-1368DR,5613,7850,15035,0.152,551
2021-01-15T06:34:52,42.805,6.029,CST-1368DR,5613,7851,15037,0.151,551
2021-01-15T06:37:53,42.805,6.029,CST-1368DR,5613,7850,15035,0.152,551
2021-01-15T06:40:55,42.805,6.029,CST-1368DR,5613,7850,15035,0.152,551
2021-01-15T06:43:57,42.805,6.029,CST-1368DR,5613,7852,15039,0.151,551
2021-01-15T06:46:58,42.805,6.029,CST-1368DR,5613,7852,15038,0.151,551
2021-01-15T06:50:00,42.805,6.029,CST-1368DR,5613,7851,15035,0.152,551
2021-01-15T06:53:01,42.805,6.029,CST-1368DR,5613,7849,15033,0.152,551
2021-01-15T06:56:03,42.805,6.029,CST-1368DR,5613,7852,15037,0.151,551
2021-01-15T06:59:05,42.805,6.029,CST-1368DR,5613,7851,15036,0.151,551
2021-01-15T07:02:06,42.805,6.029,CST-1368DR,5613,7852,15038,0.151,551
2021-01-15T07:05:08,42.805,6.029,CST-1368DR,5613,7852,15037,0.151,551
2021-01-15T07:08:09,42.805,6.029,CST-1368DR,5613,7851,15037,0.151,551
2021-01-15T07:11:11,42.805,6.029,CST-1368DR,5613,7852,15038,0.151,551
2021-01-15T07:14:12,42.805,6.029,CST-1368DR,5613,7851,15037,0.151,550
2021-01-15T07:17:14,42.805,6.029,CST-1368DR,5613,7852,15037,0.151,551
2021-01-15T07:20:16,42.805,6.029,CST-1368DR,5613,7851,15036,0.151,551
2021-01-15T07:23:17,42.805,6.029,CST-1368DR,5613,7851,15037,0.151,551
2021-01-15T07:26:19,42.805,6.029,CST-1368DR,5613,7850,15035,0.152,551
2021-01-15T07:29:20,42.805,6.029,CST-1368DR,5613,7851,15036,0.151,551
2021-01-15T07:32:22,42.805,6.029,CST-1368DR,5613,7851,15037,0.151,551
2021-01-15T07:35:23,42.805,6.029,CST-1368DR,5613,7852,15038,0.151,551
2021-01-15T07:38:25,42.805,6.029,CST-1368DR,5613,7851,15036,0.151,551
2021-01-15T07:41:27,42.805,6.029,CST-1368DR,5613,7852,15038,0.151,551
2021-01-15T07:44:28,42.805,6.029,CST-1368DR,5613,7849,15032,0.152,551
2021-01-15T07:47:30,42.805,6.029,CST-1368DR,5613,7851,15037,0.151,551
2021-01-15T07:50:31,42.805,6.029,CST-1368DR,5613,7852,15037,0.151,551
2021-01-15T07:53:33,42.805,6.029,CST-1368DR,5613,7852,15038,0.151,551
2021-01-15T07:56:35,42.805,6.029,CST-1368DR,5613,7852,15038,0.151,551
2021-01-15T07:59:36,42.805,6.029,CST-1368DR,5613,7852,15038,0.151,551
2021-01-15T08:02:38,42.805,6.029,CST-1368DR,5613,7852,15037,0.151,551
2021-01-15T08:05:39,42.805,6.029,CST-1368DR,5613,7851,15035,0.152,551
2021-01-15T08:08:41,42.805,6.029,CST-1368DR,5613,7852,15039,0.151,551
2021-01-15T08:11:42,42.805,6.029,CST-1368DR,5613,7852,15038,0.151,551
2021-01-15T08:14:44,42.805,6.029,CST-1368DR,5613,7852,15038,0.151,551
2021-01-15T08:17:46,42.805,6.029,CST-1368DR,5613,7852,15038,0.151,551
2021-01-15T08:20:47,42.805,6.029,CST-1368DR,5613,7851,15036,0.151,551
2021-01-15T08:23:49,42.805,6.029,CST-1368DR,5613,7852,15038,0.151,551
2021-01-15T08:26:50,42.805,6.029,CST-1368DR,5613,7851,15037,0.151,551
2021-01-15T08:29:52,42.805,6.029,CST-1368DR,5613,7851,15037,0.151,551
2021-01-15T08:32:54,42.805,6.029,CST-1368DR,5613,7850,15035,0.152,551
2021-01-15T08:35:55,42.805,6.029,CST-1368DR,5613,7850,15034,0.152,551
2021-01-15T08:38:57,42.805,6.029,CST-1368DR,5613,7851,15037,0.151,551
2021-01-15T08:41:58,42.805,6.029,CST-1368DR,5613,7850,15034,0.152,551
2021-01-15T08:45:00,42.805,6.029,CST-1368DR,5613,7852,15037,0.151,551
2021-01-15T08:48:01,42.805,6.029,CST-1368DR,5613,7851,15036,0.151,551
2021-01-15T08:51:03,42.805,6.029,CST-1368DR,5613,7848,15029,0.153,551
2021-01-15T08:54:05,42.805,6.029,CST-1368DR,5613,7852,15039,0.151,551
2021-01-15T08:57:06,42.805,6.029,CST-1368DR,5613,7851,15036,0.151,551
2021-01-15T09:00:08,42.805,6.029,CST-1368DR,5613,7852,15037,0.151,551
2021-01-15T09:03:09,42.805,6.029,CST-1368DR,5613,7852,15038,0.151,551
2021-01-15T09:06:11,42.805,6.029,CST-1368DR,5613,7851,15037,0.151,551
2021-01-15T09:09:13,42.805,6.029,CST-1368DR,5613,7852,15038,0.151,551
2021-01-15T09:12:14,42.805,6.029,CST-1368DR,5613,7851,15035,0.152,551
2021-01-15T09:15:16,42.805,6.029,CST-1368DR,5613,7851,15037,0.151,551
2021-01-15T09:18:17,42.805,6.029,CST-1368DR,5613,7851,15037,0.151,551
2021-01-15T09:21:19,42.805,6.029,CST-1368DR,5613,7852,15037,0.151,551
2021-01-15T09:24:20,42.805,6.029,CST-1368DR,5613,7851,15037,0.151,551
2021-01-15T09:27:22,42.805,6.029,CST-1368DR,5613,7851,15036,0.151,551
2021-01-15T09:30:24,42.805,6.029,CST-1368DR,5613,7849,15032,0.152,551
2021-01-15T09:33:25,42.805,6.029,CST-1368DR,5613,7852,15037,0.151,551
2021-01-15T09:36:27,42.805,6.029,CST-1368DR,5613,7852,15037,0.151,551
2021-01-15T09:39:28,42.805,6.029,CST-1368DR,5613,7852,15039,0.151,551
2021-01-15T09:42:30,42.805,6.029,CST-1368DR,5613,7850,15034,0.152,551
2021-01-15T09:45:31,42.805,6.029,CST-1368DR,5613,7851,15036,0.151,551
2021-01-15T09:48:33,42.805,6.029,CST-1368DR,5613,7851,15036,0.151,551
2021-01-15T09:51:35,42.805,6.029,CST-1368DR,5613,7851,15036,0.151,551
2021-01-15T09:54:36,42.805,6.029,CST-1368DR,5613,7851,15036,0.151,551
2021-01-15T09:57:38,42.805,6.029,CST-1368DR,5613,7850,15034,0.152,551
2021-01-15T10:00:39,42.805,6.029,CST-1368DR,5613,7851,15036,0.151,551
2021-01-15T10:03:41,42.805,6.029,CST-1368DR,5613,7852,15037,0.151,551
2021-01-15T10:06:43,42.805,6.029,CST-1368DR,5613,7851,15036,0.151,551
2021-01-15T10:09:44,42.805,6.029,CST-1368DR,5613,7850,15035,0.152,550
2021-01-15T10:12:46,42.805,6.029,CST-1368DR,5613,7850,15034,0.152,551
2021-01-15T10:15:47,42.805,6.029,CST-1368DR,5613,7849,15033,0.152,551
2021-01-15T10:18:49,42.805,6.029,CST-1368DR,5613,7851,15036,0.151,551
2021-01-15T10:21:50,42.805,6.029,CST-1368DR,5612,7851,15038,0.151,551
2021-01-15T10:24:52,42.805,6.029,CST-1368DR,5613,7851,15036,0.151,551
2021-01-15T10:27:54,42.805,6.029,CST-1368DR,5613,7851,15035,0.152,551
2021-01-15T10:30:55,42.805,6.029,CST-1368DR,5613,7850,15034,0.152,551
2021-01-15T10:33:57,42.805,6.029,CST-1368DR,5613,7850,15034,0.152,551
2021-01-15T10:36:58,42.805,6.029,CST-1368DR,5613,7851,15036,0.151,551
2021-01-15T10:40:00,42.805,6.029,CST-1368DR,5613,7851,15036,0.151,551
2021-01-15T10:43:01,42.805,6.029,CST-1368DR,5613,7851,15037,0.151,551
2021-01-15T10:46:03,42.805,6.029,CST-1368DR,5613,7851,15037,0.151,551
2021-01-15T10:49:05,42.805,6.029,CST-1368DR,5613,7848,15030,0.153,551
2021-01-15T10:52:06,42.805,6.029,CST-1368DR,5613,7851,15036,0.151,551
2021-01-15T10:55:08,42.805,6.029,CST-1368DR,5612,7851,15038,0.151,551
2021-01-15T10:58:09,42.805,6.029,CST-1368DR,5612,7850,15036,0.151,551
2021-01-15T11:01:11,42.805,6.029,CST-1368DR,5612,7850,15036,0.151,551
2021-01-15T11:04:13,42.805,6.029,CST-1368DR,5612,7849,15035,0.152,551
2021-01-15T11:07:14,42.805,6.029,CST-1368DR,5612,7850,15036,0.151,551
2021-01-15T11:10:16,42.805,6.029,CST-1368DR,5612,7850,15036,0.151,551
2021-01-15T11:13:17,42.805,6.029,CST-1368DR,5612,7851,15039,0.151,550
2021-01-15T11:16:19,42.805,6.029,CST-1368DR,5612,7850,15036,0.151,551
2021-01-15T11:19:20,42.805,6.029,CST-1368DR,5612,7849,15035,0.152,551
2021-01-15T11:22:22,42.805,6.029,CST-1368DR,5612,7849,15035,0.152,551
2021-01-15T11:25:24,42.805,6.029,CST-1368DR,5612,7851,15038,0.151,551
2021-01-15T11:28:25,42.805,6.029,CST-1368DR,5612,7849,15035,0.152,551
2021-01-15T11:31:27,42.805,6.029,CST-1368DR,5612,7850,15037,0.151,551
2021-01-15T11:34:28,42.805,6.029,CST-1368DR,5612,7849,15034,0.152,551
2021-01-15T11:37:30,42.805,6.029,CST-1368DR,5612,7851,15038,0.151,551
2021-01-15T11:40:32,42.805,6.029,CST-1368DR,5612,7850,15037,0.151,551
2021-01-15T11:43:33,42.805,6.029,CST-1368DR,5612,7851,15038,0.151,551
2021-01-15T11:46:35,42.805,6.029,CST-1368DR,5612,7850,15037,0.151,551
2021-01-15T11:49:36,42.805,6.029,CST-1368DR,5612,7851,15038,0.151,551
2021-01-15T11:52:38,42.805,6.029,CST-1368DR,5612,7850,15037,0.151,551
2021-01-15T11:55:39,42.805,6.029,CST-1368DR,5612,7850,15037,0.151,551
2021-01-15T11:58:41,42.805,6.029,CST-1368DR,5612,7849,15035,0.152,551
2021-01-15T12:05:06,42.805,6.029,CST-1368DR,5612,7849,15034,0.152,551
2021-01-15T12:08:08,42.805,6.029,CST-1368DR,5612,7848,15032,0.152,551
2021-01-15T12:11:10,42.805,6.029,CST-1368DR,5612,7850,15036,0.151,551
2021-01-15T12:14:11,42.805,6.029,CST-1368DR,5612,7850,15037,0.151,551
2021-01-15T12:17:13,42.805,6.029,CST-1368DR,5612,7851,15038,0.151,551
2021-01-15T12:20:14,42.805,6.029,CST-1368DR,5612,7849,15035,0.152,551
2021-01-15T12:23:16,42.805,6.029,CST-1368DR,5612,7851,15038,0.151,551
2021-01-15T12:26:17,42.805,6.029,CST-1368DR,5612,7850,15036,0.151,551
2021-01-15T12:29:19,42.805,6.029,CST-1368DR,5612,7851,15038,0.151,551
2021-01-15T12:32:21,42.805,6.029,CST-1368DR,5612,7850,15036,0.151,551
2021-01-15T12:35:22,42.805,6.029,CST-1368DR,5612,7849,15034,0.152,551
2021-01-15T12:38:24,42.805,6.029,CST-1368DR,5612,7850,15037,0.151,551
2021-01-15T12:41:25,42.805,6.029,CST-1368DR,5612,7850,15037,0.151,551
2021-01-15T12:44:27,42.805,6.029,CST-1368DR,5612,7850,15036,0.151,551
2021-01-15T12:47:29,42.805,6.029,CST-1368DR,5612,7851,15038,0.151,551
2021-01-15T12:50:30,42.805,6.029,CST-1368DR,5612,7851,15038,0.151,551
2021-01-15T12:53:32,42.805,6.029,CST-1368DR,5612,7851,15038,0.151,551
2021-01-15T12:56:33,42.805,6.029,CST-1368DR,5612,7848,15033,0.152,551
2021-01-15T12:59:35,42.805,6.029,CST-1368DR,5612,7850,15037,0.151,551
2021-01-15T13:02:36,42.805,6.029,CST-1368DR,5612,7849,15035,0.152,551
2021-01-15T13:05:38,42.805,6.029,CST-1368DR,5612,7849,15035,0.152,551
2021-01-15T13:08:40,42.805,6.029,CST-1368DR,5612,7850,15037,0.151,551
2021-01-15T13:11:41,42.805,6.029,CST-1368DR,5612,7851,15038,0.151,551
2021-01-15T13:14:43,42.805,6.029,CST-1368DR,5612,7850,15037,0.151,551
2021-01-15T13:17:44,42.805,6.029,CST-1368DR,5612,7850,15036,0.151,551
2021-01-15T13:20:46,42.805,6.029,CST-1368DR,5612,7849,15035,0.152,551
2021-01-15T13:23:48,42.805,6.029,CST-1368DR,5612,7847,15031,0.153,551
2021-01-15T13:26:49,42.805,6.029,CST-1368DR,5612,7850,15037,0.151,551
2021-01-15T13:29:51,42.805,6.029,CST-1368DR,5612,7850,15037,0.151,551
2021-01-15T13:32:52,42.805,6.029,CST-1368DR,5612,7849,15034,0.152,551
2021-01-15T13:35:54,42.805,6.029,CST-1368DR,5612,7849,15035,0.152,551
2021-01-15T13:38:55,42.805,6.029,CST-1368DR,5612,7849,15034,0.152,551
2021-01-15T13:41:57,42.805,6.029,CST-1368DR,5612,7849,15035,0.152,551
2021-01-15T13:44:59,42.805,6.029,CST-1368DR,5612,7849,15035,0.152,551
2021-01-15T13:48:00,42.805,6.029,CST-1368DR,5612,7850,15037,0.151,551
2021-01-15T13:51:02,42.805,6.029,CST-1368DR,5612,7847,15031,0.153,551
2021-01-15T13:54:03,42.805,6.029,CST-1368DR,5612,7847,15031,0.153,551
2021-01-15T13:57:05,42.805,6.029,CST-1368DR,5612,7849,15034,0.152,551
2021-01-15T14:00:07,42.805,6.029,CST-1368DR,5612,7848,15033,0.152,551
2021-01-15T14:03:08,42.805,6.029,CST-1368DR,5612,7850,15036,0.151,551
2021-01-15T14:06:10,42.805,6.029,CST-1368DR,5612,7849,15035,0.152,551
2021-01-15T14:09:11,42.805,6.029,CST-1368DR,5612,7850,15036,0.151,551
2021-01-15T14:12:13,42.805,6.029,CST-1368DR,5612,7850,15036,0.151,551
2021-01-15T14:15:14,42.805,6.029,CST-1368DR,5612,7849,15035,0.152,551
2021-01-15T14:18:16,42.805,6.029,CST-1368DR,5612,7848,15032,0.152,551
2021-01-15T14:21:18,42.805,6.029,CST-1368DR,5612,7848,15033,0.152,551
2021-01-15T14:24:19,42.805,6.029,CST-1368DR,5612,7849,15034,0.152,551
2021-01-15T14:27:21,42.805,6.029,CST-1368DR,5612,7848,15033,0.152,551
2021-01-15T14:30:22,42.805,6.029,CST-1368DR,5612,7848,15033,0.152,551
2021-01-15T14:33:24,42.805,6.029,CST-1368DR,5612,7847,15030,0.153,551
2021-01-15T14:36:25,42.805,6.029,CST-1368DR,5612,7849,15035,0.152,551
2021-01-15T14:39:27,42.805,6.029,CST-1368DR,5612,7848,15032,0.152,551
2021-01-15T14:42:29,42.805,6.029,CST-1368DR,5612,7848,15033,0.152,551
2021-01-15T14:45:30,42.805,6.029,CST-1368DR,5612,7849,15035,0.152,551
2021-01-15T14:48:32,42.805,6.029,CST-1368DR,5612,7849,15034,0.152,551
2021-01-15T14:51:33,42.805,6.029,CST-1368DR,5612,7848,15033,0.152,551
2021-01-15T14:54:35,42.805,6.029,CST-1368DR,5612,7849,15034,0.152,551
2021-01-15T14:57:37,42.805,6.029,CST-1368DR,5612,7844,15026,0.154,551
2021-01-15T15:00:38,42.805,6.029,CST-1368DR,5612,7847,15031,0.153,551
2021-01-15T15:03:40,42.805,6.029,CST-1368DR,5612,7848,15033,0.152,551
2021-01-15T15:06:41,42.805,6.029,CST-1368DR,5612,7849,15035,0.152,551
2021-01-15T15:09:43,42.805,6.029,CST-1368DR,5612,7848,15033,0.152,551
2021-01-15T15:12:44,42.805,6.029,CST-1368DR,5612,7846,15028,0.154,551
2021-01-15T15:15:46,42.805,6.029,CST-1368DR,5612,7850,15036,0.151,551
2021-01-15T15:18:48,42.805,6.029,CST-1368DR,5612,7849,15034,0.152,551
2021-01-15T15:21:49,42.805,6.029,CST-1368DR,5612,7850,15037,0.151,551
2021-01-15T15:24:51,42.805,6.029,CST-1368DR,5612,7848,15033,0.152,551
2021-01-15T15:27:52,42.805,6.029,CST-1368DR,5612,7847,15031,0.153,551
2021-01-15T15:30:54,42.805,6.029,CST-1368DR,5612,7848,15032,0.152,551
2021-01-15T15:33:55,42.805,6.029,CST-1368DR,5612,7848,15033,0.152,551
2021-01-15T15:36:57,42.805,6.029,CST-1368DR,5612,7847,15031,0.153,551
2021-01-15T15:39:59,42.805,6.029,CST-1368DR,5612,7846,15029,0.153,551
2021-01-15T15:43:00,42.805,6.029,CST-1368DR,5612,7848,15033,0.152,551
2021-01-15T15:46:02,42.805,6.029,CST-1368DR,5612,7847,15030,0.153,551
2021-01-15T15:49:03,42.805,6.029,CST-1368DR,5612,7845,15027,0.154,551
2021-01-15T15:52:05,42.805,6.029,CST-1368DR,5612,7846,15029,0.153,551
2021-01-15T15:55:07,42.805,6.029,CST-1368DR,5612,7847,15031,0.153,551
2021-01-15T15:58:08,42.805,6.029,CST-1368DR,5612,7848,15033,0.152,551
2021-01-15T16:01:10,42.805,6.029,CST-1368DR,5612,7847,15031,0.153,551
2021-01-15T16:04:11,42.805,6.029,CST-1368DR,5612,7848,15032,0.152,551
2021-01-15T16:07:13,42.805,6.029,CST-1368DR,5612,7848,15033,0.152,551
2021-01-15T16:10:14,42.805,6.029,CST-1368DR,5612,7848,15033,0.152,551
2021-01-15T16:13:16,42.805,6.029,CST-1368DR,5612,7849,15034,0.152,551
2021-01-15T16:16:18,42.805,6.029,CST-1368DR,5612,7848,15032,0.152,551
2021-01-15T16:19:19,42.805,6.029,CST-1368DR,5612,7849,15034,0.152,551
2021-01-15T16:22:21,42.805,6.029,CST-1368DR,5612,7849,15035,0.152,551
2021-01-15T16:25:22,42.805,6.029,CST-1368DR,5612,7847,15031,0.153,551
2021-01-15T16:28:24,42.805,6.029,CST-1368DR,5612,7848,15032,0.152,551
2021-01-15T16:31:26,42.805,6.029,CST-1368DR,5612,7848,15033,0.152,551
2021-01-15T16:34:27,42.805,6.029,CST-1368DR,5612,7848,15032,0.152,551
2021-01-15T16:37:29,42.805,6.029,CST-1368DR,5612,7846,15029,0.153,550
2021-01-15T16:40:30,42.805,6.029,CST-1368DR,5612,7848,15032,0.152,551
2021-01-15T16:43:32,42.805,6.029,CST-1368DR,5612,7849,15034,0.152,551
2021-01-15T16:46:33,42.805,6.029,CST-1368DR,5612,7848,15032,0.152,551
2021-01-15T16:49:35,42.805,6.029,CST-1368DR,5612,7849,15034,0.152,551
2021-01-15T16:52:37,42.805,6.029,CST-1368DR,5612,7848,15032,0.152,551
2021-01-15T16:55:38,42.805,6.029,CST-1368DR,5612,7848,15032,0.152,551